Date,TemperatureHighF,TemperatureAvgF,TemperatureLowF,DewpointHighF,DewpointAvgF,DewpointLowF,HumidityHigh,HumidityAvg,HumidityLow,PressureMaxIn,PressureMinIn,WindSpeedMaxMPH,WindSpeedAvgMPH,GustSpeedMaxMPH,PrecipitationSumIn
2013-1-1,19,5,-7,15,-2,-13,86,75,61,30.30,30.07,11,0,11,0.00
2013-1-2,19,14,12,15,10,8,88,84,80,30.08,29.97,10,0,10,0.00
2013-1-3,19,14,9,16,9,2,89,79,66,30.25,30.07,14,0,14,0.00
2013-1-4,29,21,12,17,14,8,84,74,59,30.14,30.01,16,1,16,0.00
2013-1-5,26,17,9,15,11,5,87,78,61,30.09,29.85,11,0,11,0.00
2013-1-6,24,17,11,16,10,6,87,75,53,30.22,30.00,10,0,10,0.00
2013-1-7,36,27,14,25,20,10,86,75,62,30.05,29.89,22,2,22,0.00
2013-1-8,32,26,15,28,22,12,91,84,73,29.97,29.76,15,2,15,0.00
2013-1-9,34,29,24,26,22,18,86,73,58,30.34,29.89,22,2,22,0.00
2013-1-10,38,32,25,33,24,19,97,74,48,30.31,29.73,15,2,15,0.00
2013-1-11,39,36,34,39,36,33,99,99,97,29.73,29.33,14,2,14,0.00
2013-1-12,38,16,5,38,10,-2,99,76,63,30.06,29.34,19,2,19,0.00
2013-1-13,10,5,3,2,-1,-4,78,74,69,30.27,30.05,9,0,9,0.00
2013-1-14,14,8,2,3,0,-3,82,73,59,30.43,30.27,9,0,9,0.00
2013-1-15,29,19,8,17,11,3,84,73,53,30.32,29.84,19,1,19,0.00
2013-1-16,35,26,13,31,17,-2,94,72,48,30.20,29.65,17,2,17,0.00
2013-1-17,18,12,6,8,1,-6,76,61,48,30.39,30.21,15,0,15,0.00
2013-1-18,42,28,15,30,22,8,86,77,60,30.32,29.73,16,1,16,0.00
2013-1-19,38,24,2,29,17,-6,93,76,54,30.18,29.64,26,3,26,0.00
2013-1-20,9,3,-2,-1,-7,-13,73,64,50,30.42,30.18,17,1,17,0.00
2013-1-21,-2,-6,-11,-12,-16,-22,68,59,51,30.39,30.29,23,1,23,0.00
2013-1-22,4,-4,-12,-5,-14,-20,66,60,51,30.46,30.30,9,0,9,0.00
2013-1-23,16,6,-5,7,-4,-18,81,62,44,30.62,30.19,28,2,28,0.00
2013-1-24,10,1,-7,1,-10,-19,65,58,53,30.71,30.22,17,1,17,0.00
2013-1-25,19,13,4,10,4,-4,81,67,55,30.30,29.96,22,2,22,0.00
2013-1-26,22,12,0,11,2,-6,76,65,53,30.38,30.15,14,1,15,0.00
2013-1-27,31,28,22,29,21,10,96,77,60,30.15,29.79,17,2,17,0.00
2013-1-28,33,31,29,32,30,28,98,97,94,29.88,29.61,14,1,14,0.00
2013-1-29,34,31,28,34,30,22,98,93,79,29.71,29.48,20,1,20,0.00
2013-1-30,28,18,9,22,10,1,80,73,65,29.73,29.60,23,3,23,0.00
2013-1-31,9,2,-8,1,-7,-17,75,66,61,30.29,29.73,21,2,21,0.00
2013-2-1,4,-4,-12,-2,-13,-20,79,64,44,30.36,30.10,12,1,12,0.00
2013-2-2,11,6,0,4,-2,-7,81,71,53,30.22,29.99,9,0,9,0.00
2013-2-3,16,10,3,7,3,-3,83,73,57,30.11,29.98,17,0,17,0.00
2013-2-4,16,10,3,6,1,-4,82,68,50,30.08,29.78,11,0,11,0.00
2013-2-5,30,20,8,24,14,4,93,78,56,30.09,29.66,15,1,15,0.00
2013-2-6,24,14,3,18,10,-2,87,82,76,30.11,29.95,14,2,14,0.00
2013-2-7,26,25,20,23,21,17,91,84,76,30.24,29.99,14,1,14,0.00
2013-2-8,26,21,14,20,13,8,84,71,55,30.38,30.23,10,1,10,0.00
2013-2-9,31,27,22,26,23,18,91,85,80,30.23,29.93,20,3,20,0.00
2013-2-10,33,30,27,32,28,23,98,93,85,29.93,29.24,21,4,21,0.00
2013-2-11,31,25,18,31,21,13,98,86,75,30.02,29.28,19,2,19,0.00
2013-2-12,35,24,14,24,17,9,86,77,61,30.02,29.79,17,1,17,0.00
2013-2-13,40,28,18,31,23,15,96,82,58,29.79,29.54,12,0,12,0.00
2013-2-14,33,26,14,31,20,3,96,80,52,30.15,29.54,19,1,19,0.00
2013-2-15,20,11,5,5,1,-2,74,64,47,30.30,30.15,16,1,16,0.00
2013-2-16,18,8,-2,6,0,-7,80,70,55,30.26,30.14,7,0,7,0.00
2013-2-17,30,19,3,19,11,-3,78,69,58,30.14,29.64,21,4,21,0.00
2013-2-18,33,24,10,29,18,2,86,77,70,29.76,29.52,21,2,21,0.00
2013-2-19,11,6,0,3,-5,-10,77,61,51,30.37,29.76,25,3,25,0.00
2013-2-20,18,6,-4,4,-4,-11,72,63,49,30.49,30.37,10,0,10,0.00
2013-2-21,22,13,2,11,4,-4,77,67,56,30.47,30.10,19,2,19,0.00
2013-2-22,32,23,19,23,18,11,88,81,66,30.10,29.85,20,1,20,0.00
2013-2-23,32,24,19,23,19,15,90,82,68,29.95,29.82,7,0,7,0.00
2013-2-24,35,23,10,22,16,6,88,75,55,30.10,29.95,10,0,10,0.00
2013-2-25,33,27,21,26,22,18,91,81,69,30.10,30.02,7,0,7,0.00
2013-2-26,40,28,18,28,22,16,91,79,59,30.04,29.85,14,0,14,0.00
2013-2-27,38,31,26,26,24,20,82,75,60,29.99,29.82,20,2,20,0.00
2013-2-28,31,27,23,22,19,14,79,71,65,30.20,29.98,16,1,16,0.00
2013-3-1,34,25,20,19,15,11,74,65,50,30.33,30.20,15,1,15,0.00
2013-3-2,24,16,9,12,9,5,84,74,57,30.35,30.33,9,1,9,0.00
2013-3-4,24,24,24,21,20,18,91,84,79,30.03,29.97,13,4,13,0.00
2013-3-5,32,25,19,25,21,14,92,85,74,30.29,29.96,14,2,14,0.00
2013-3-6,31,22,14,18,15,10,86,75,57,30.40,30.28,14,1,14,0.00
2013-3-7,32,20,8,18,12,4,86,72,53,30.40,30.30,13,1,13,0.00
2013-3-8,40,30,19,28,22,14,86,74,60,30.33,30.07,18,2,18,0.00
2013-3-9,36,34,32,35,32,26,98,94,73,30.07,29.67,22,2,22,0.00
2013-3-10,35,33,30,34,30,25,98,89,79,29.91,29.73,20,2,20,0.00
2013-3-11,30,28,23,26,22,16,87,79,68,29.82,29.70,18,2,18,0.00
2013-3-12,29,24,19,17,14,9,83,66,48,30.16,29.80,24,2,24,0.00
2013-3-13,36,23,13,17,12,8,83,63,34,30.37,30.16,9,0,9,0.00
2013-3-14,39,29,22,27,22,15,90,76,60,30.26,30.00,15,1,15,0.00
2013-3-15,34,30,25,30,27,22,94,87,81,30.00,29.81,14,1,14,0.00
2013-3-16,29,22,14,22,13,4,89,69,51,30.23,29.86,13,1,13,0.00
2013-3-17,28,17,5,18,5,-4,74,59,45,30.26,29.91,17,3,17,0.00
2013-3-18,28,22,12,26,16,5,93,78,66,29.91,29.60,22,4,22,0.00
2013-3-19,24,13,6,8,2,-5,73,59,44,30.18,29.78,21,3,21,0.00
2013-3-20,24,13,4,5,-1,-6,63,54,43,30.21,30.11,16,2,16,0.00
2013-3-21,31,16,2,11,4,-4,78,58,37,30.14,30.05,9,0,9,0.00
2013-3-22,38,23,8,16,10,2,79,61,34,30.09,30.04,7,0,7,0.00
2013-3-23,39,28,17,22,16,11,83,61,41,30.15,30.05,6,0,6,0.00
2013-3-24,32,29,27,23,21,18,75,70,62,30.09,29.95,13,1,18,0.00
2013-3-25,41,30,21,22,17,13,74,60,39,30.19,30.00,18,2,18,0.00
2013-3-26,42,32,27,24,21,18,73,63,42,30.27,30.18,10,0,10,0.00
2013-3-27,44,33,24,21,19,15,82,58,33,30.32,30.27,11,0,11,0.00
2013-3-28,45,33,23,23,19,17,79,59,35,30.34,30.26,11,1,11,0.00
2013-3-29,48,37,28,32,26,20,77,66,48,30.27,30.06,16,1,16,0.00
2013-3-30,54,42,35,42,36,31,98,80,57,30.06,29.80,15,1,15,0.00
2013-3-31,40,34,24,31,23,13,93,68,33,30.04,29.75,27,3,27,0.00
2013-4-1,35,25,17,17,13,10,73,60,40,30.25,30.04,18,1,18,0.00
2013-4-2,40,28,18,17,14,10,78,57,30,30.34,30.23,14,0,14,0.00
2013-4-3,43,32,21,30,20,12,79,60,40,30.40,30.06,22,2,22,0.00
2013-4-4,52,42,32,33,27,21,77,57,35,30.12,29.97,18,2,19,0.00
2013-4-5,43,33,26,31,23,15,93,68,37,30.21,29.88,17,3,17,0.00
2013-4-6,51,40,34,40,33,26,94,76,55,29.88,29.47,22,4,22,0.00
2013-4-7,47,39,34,36,33,30,92,78,62,29.92,29.70,13,1,13,0.00
2013-4-8,45,41,38,41,38,36,97,92,83,30.00,29.64,14,1,14,0.00
2013-4-9,41,37,32,38,33,27,97,86,67,30.13,29.93,25,2,25,0.26
2013-4-10,37,33,28,28,26,23,94,76,62,30.16,29.88,24,4,24,0.20
2013-4-11,34,32,30,32,29,23,95,89,64,29.88,29.65,27,4,27,0.03
2013-4-12,36,31,27,30,27,24,95,86,71,29.81,29.63,15,0,15,0.03
2013-4-13,37,32,27,27,25,22,94,77,59,29.95,29.80,13,0,13,0.00
2013-4-14,36,31,28,35,27,22,97,86,72,29.93,29.47,28,6,28,0.00
2013-4-15,38,34,31,34,28,23,97,78,66,29.94,29.52,24,3,24,0.00
2013-4-16,48,38,32,30,27,25,85,67,45,30.29,29.94,12,1,12,0.00
2013-4-17,39,35,33,35,30,26,96,80,72,30.29,29.86,23,4,23,0.00
2013-4-18,34,32,30,33,31,30,97,97,96,29.88,29.44,18,1,18,0.00
2013-4-19,37,31,26,30,27,19,97,84,60,29.95,29.42,25,2,25,0.00
2013-4-20,42,31,19,21,15,8,77,53,28,30.29,29.96,9,0,9,0.00
2013-4-21,49,39,31,45,34,18,98,84,57,30.29,30.01,28,3,28,0.00
2013-4-22,43,36,32,38,34,31,97,91,70,30.18,30.06,11,1,16,0.00
2013-4-23,43,36,30,33,26,19,96,68,44,30.12,30.03,15,1,15,0.00
2013-4-24,50,36,26,33,27,21,91,71,39,30.04,29.87,19,1,19,0.00
2013-4-25,52,41,32,33,29,24,91,65,37,30.17,29.94,15,1,15,0.00
2013-4-26,73,57,42,46,37,27,75,51,30,30.07,29.95,23,2,23,0.00
2013-4-27,75,59,43,49,41,34,73,54,27,30.07,29.85,18,1,18,0.00
2013-4-28,80,62,49,56,48,43,91,63,32,29.85,29.58,26,3,26,0.08
2013-4-29,76,61,47,56,49,39,96,67,32,29.75,29.50,16,1,16,0.00
2013-4-30,71,64,57,58,46,27,82,55,27,29.89,29.36,19,2,19,0.00
2013-5-1,56,40,34,42,36,32,99,87,45,30.45,29.89,17,1,17,0.43
2013-5-2,43,36,32,35,32,28,98,85,58,30.52,30.39,15,1,15,0.32
2013-5-3,37,34,31,33,30,27,96,88,74,30.39,30.13,16,1,16,0.21
2013-5-4,55,41,32,45,37,31,99,89,67,30.14,30.08,13,0,13,0.10
2013-5-5,68,51,38,48,41,35,90,72,45,30.13,30.02,10,0,10,0.00
2013-5-6,78,60,44,52,45,40,87,60,29,30.05,29.95,7,0,7,0.00
2013-5-7,79,65,50,51,45,37,85,52,23,30.00,29.89,17,0,17,0.00
2013-5-8,77,63,54,58,50,44,96,66,33,29.93,29.87,14,0,14,0.11
2013-5-9,57,52,42,56,48,31,96,88,63,30.03,29.87,18,1,18,0.20
2013-5-10,68,51,36,38,30,22,76,47,19,30.06,29.83,11,0,11,0.00
2013-5-11,55,46,39,43,28,17,74,49,25,30.12,29.82,30,4,30,0.00
2013-5-12,60,46,32,28,22,17,72,43,20,30.18,30.05,17,1,17,0.00
2013-5-13,68,53,36,46,32,18,68,46,26,30.08,29.60,27,2,27,0.02
2013-5-14,96,72,53,54,46,32,78,45,18,29.64,29.37,27,2,27,0.00
2013-5-15,79,66,53,51,46,42,72,50,28,29.84,29.57,23,1,23,0.00
2013-5-16,84,69,54,53,45,32,75,44,24,29.85,29.76,22,2,22,0.00
2013-5-17,65,57,54,55,50,32,96,78,29,29.94,29.83,18,5,18,0.12
2013-5-18,79,63,53,66,58,51,99,85,59,29.96,29.73,19,1,19,0.55
2013-5-19,81,68,63,68,63,60,99,84,59,29.75,29.49,23,2,23,1.00
2013-5-20,70,64,59,66,60,56,99,88,70,29.52,29.43,19,2,19,0.43
2013-5-21,67,58,50,61,56,49,99,94,77,29.64,29.46,11,1,11,0.12
2013-5-22,52,50,47,50,48,44,98,93,75,29.93,29.63,19,0,19,0.03
2013-5-23,67,54,43,44,37,29,83,57,29,30.30,29.93,16,1,16,0.00
2013-5-24,68,54,39,51,39,29,91,58,36,30.35,30.14,15,1,15,0.13
2013-5-25,61,56,51,51,48,43,96,75,53,30.21,30.18,21,2,21,0.14
2013-5-26,58,54,50,47,43,35,79,65,45,30.19,29.99,20,3,20,0.00
2013-5-27,59,56,53,55,50,46,96,82,70,30.00,29.78,20,5,20,0.07
2013-5-28,57,55,52,56,54,51,98,96,93,29.78,29.67,14,2,14,0.03
2013-5-29,73,63,54,70,61,54,99,92,76,29.78,29.59,21,1,21,0.25
2013-5-30,77,70,64,65,63,61,97,79,64,29.56,29.45,22,2,22,0.13
2013-5-31,78,67,60,63,59,51,97,78,43,29.50,29.43,29,2,29,0.17
2013-6-1,72,60,50,59,53,42,94,79,57,29.86,29.48,18,1,18,0.00
2013-6-2,68,56,47,46,42,37,81,60,35,30.02,29.86,14,0,14,0.00
2013-6-3,70,59,47,50,45,40,87,62,35,30.02,29.89,12,0,12,0.00
2013-6-4,62,58,54,52,49,42,91,72,59,30.03,29.95,19,2,19,0.00
2013-6-5,57,55,53,56,53,51,99,96,89,30.01,29.89,12,1,12,0.08
2013-6-6,56,54,50,53,52,49,98,93,85,29.98,29.89,7,0,7,0.01
2013-6-7,64,57,53,54,52,50,96,84,63,30.00,29.87,6,0,6,0.01
2013-6-8,71,63,53,57,53,50,93,72,52,29.87,29.83,14,1,14,0.00
2013-6-9,66,59,56,61,56,52,97,89,74,29.85,29.71,23,5,23,0.33
2013-6-10,75,64,58,66,61,58,99,89,65,29.80,29.74,5,0,5,0.00
2013-6-11,75,66,57,68,62,56,99,88,71,29.82,29.74,7,0,7,0.00
2013-6-12,70,66,63,68,63,53,99,91,69,29.84,29.70,14,1,14,0.50
2013-6-13,78,67,56,60,54,50,80,64,45,30.03,29.84,12,0,12,0.00
2013-6-14,78,68,57,62,56,50,81,68,53,30.03,29.81,18,1,18,0.00
2013-6-15,73,66,61,69,64,58,99,95,72,29.86,29.77,15,0,15,0.68
2013-6-16,82,67,57,64,58,51,100,78,38,29.86,29.77,14,0,14,0.03
2013-6-17,81,69,59,64,58,53,91,70,46,29.94,29.80,14,0,14,0.00
2013-6-18,75,65,55,62,55,49,83,70,51,30.03,29.94,12,1,12,0.00
2013-6-19,84,71,58,65,58,50,85,64,45,30.01,29.89,14,0,14,0.00
2013-6-20,86,76,68,70,64,59,79,65,50,29.94,29.81,21,1,21,0.00
2013-6-21,79,71,64,69,66,63,100,86,63,30.01,29.67,25,2,25,1.47
2013-6-22,80,70,64,71,67,64,100,89,70,29.95,29.76,15,1,15,0.42
2013-6-23,82,72,67,72,68,64,99,86,64,29.82,29.63,16,1,23,0.55
2013-6-24,81,71,64,70,66,63,98,84,65,29.84,29.73,14,0,16,0.00
2013-6-25,84,74,64,72,67,62,97,82,60,29.78,29.64,16,1,16,0.00
2013-6-26,84,75,71,77,72,65,99,89,73,29.73,29.59,11,0,12,0.39
2013-6-27,85,75,67,69,63,56,93,69,43,29.74,29.70,19,1,19,0.00
2013-6-28,77,69,64,66,62,57,97,79,62,29.72,29.68,10,1,18,0.18
2013-6-29,75,67,61,64,60,52,100,81,54,29.91,29.67,13,0,13,0.38
2013-6-30,81,68,57,60,53,48,83,61,37,30.05,29.91,16,0,16,0.00
2013-7-1,83,71,60,63,56,50,84,61,37,30.12,30.05,9,0,9,0.00
2013-7-2,83,70,57,61,54,49,79,59,37,30.09,29.99,15,0,15,0.00
2013-7-8,84,74,66,74,69,65,98,83,61,29.91,29.81,7,0,7,0.00
2013-7-9,81,75,69,76,70,64,99,85,74,29.88,29.70,17,0,17,0.43
2013-7-10,81,70,61,64,58,54,85,66,43,29.98,29.82,16,0,16,0.00
2013-7-11,85,72,60,66,60,57,92,67,41,30.05,29.92,14,0,14,0.00
2013-7-12,87,76,66,68,61,57,79,62,44,29.96,29.85,22,2,22,0.00
2013-7-13,77,70,63,74,64,56,100,80,59,30.02,29.86,18,1,18,0.46
2013-7-14,85,75,69,69,65,62,83,72,52,30.12,30.01,14,1,14,0.00
2013-7-15,88,77,68,73,67,64,87,72,48,30.17,30.08,9,0,12,0.00
2013-7-16,91,80,73,76,72,70,93,75,54,30.14,30.09,7,0,7,0.00
2013-7-17,90,80,72,76,71,69,89,75,57,30.17,30.03,7,0,7,0.00
2013-7-18,92,82,74,76,71,69,88,71,52,30.03,29.68,14,0,14,0.00
2013-7-19,84,78,69,72,66,59,90,69,47,29.80,29.63,15,0,15,0.04
2013-7-20,80,72,64,66,61,56,88,69,49,29.89,29.78,11,0,11,0.01
2013-7-21,80,68,58,68,60,48,98,77,60,29.89,29.75,12,2,12,0.25
2013-7-22,85,73,64,75,65,56,95,79,57,29.77,29.59,14,1,14,0.00
2013-7-23,77,67,60,58,54,51,82,64,44,29.96,29.77,12,0,12,0.00
2013-7-24,78,66,57,61,56,49,83,71,48,30.02,29.92,6,0,6,0.00
2013-7-25,78,70,60,70,63,58,97,81,57,29.93,29.84,12,0,12,0.07
2013-7-26,72,64,54,64,56,46,90,76,62,30.02,29.82,10,0,19,0.00
2013-7-27,60,55,52,53,49,45,90,80,63,30.02,29.89,20,1,20,0.08
2013-7-28,72,60,51,57,51,46,88,73,52,30.01,29.91,10,0,10,0.00
2013-7-29,79,65,53,60,55,50,94,71,44,30.08,30.01,12,0,12,0.00
2013-7-30,72,66,63,65,61,56,92,82,73,30.05,29.99,9,0,9,0.01
2013-7-31,80,67,61,69,61,51,99,82,56,30.01,29.91,17,0,17,0.03
2013-8-1,81,67,54,63,56,51,93,70,40,29.97,29.80,6,0,7,0.00
2013-8-2,77,66,58,58,55,50,90,69,46,29.98,29.79,16,0,16,0.00
2013-8-3,78,65,55,59,52,49,90,65,42,30.13,29.98,10,0,10,0.00
2013-8-4,74,64,54,59,54,49,87,71,52,30.18,29.96,7,0,7,0.00
2013-8-5,75,66,60,67,63,55,99,90,74,29.97,29.73,15,0,15,0.43
2013-8-6,83,68,57,70,62,56,98,84,60,29.78,29.62,18,0,18,0.65
2013-8-7,76,65,59,62,57,50,99,77,42,29.97,29.71,13,0,13,0.01
2013-8-8,76,65,55,64,57,50,92,76,53,30.00,29.92,6,0,6,0.00
2013-8-9,77,66,59,62,57,50,97,73,41,30.06,29.93,13,0,13,0.00
2013-8-10,76,66,58,59,55,50,88,68,43,30.12,30.03,4,0,4,0.00
2013-8-11,80,68,62,66,60,53,92,77,53,30.04,29.93,6,0,6,0.00
2013-8-12,80,69,61,64,59,53,97,73,43,30.01,29.92,14,0,14,0.00
2013-8-13,76,64,54,56,51,45,93,66,38,30.13,30.01,10,0,10,0.00
2013-8-14,76,63,52,62,53,48,93,72,50,30.14,30.05,3,0,8,0.00
2013-8-15,80,65,54,64,56,49,89,72,50,30.08,30.02,5,0,5,0.00
2013-8-16,81,67,57,64,57,52,93,71,45,30.13,30.07,10,0,10,0.00
2013-8-17,82,68,56,63,57,53,92,69,42,30.15,30.05,16,0,16,0.00
2013-8-18,82,69,58,64,58,54,87,69,45,30.08,29.95,15,0,15,0.00
2013-8-19,86,72,63,70,64,58,85,74,55,29.97,29.84,13,0,13,0.00
2013-8-20,90,77,68,74,68,63,87,75,56,29.85,29.78,16,1,16,0.00
2013-8-21,87,77,71,76,72,68,94,85,66,29.92,29.76,14,0,14,0.02
2013-8-22,87,74,65,69,56,50,92,57,30,30.05,29.91,16,1,16,0.01
2013-8-23,88,72,58,67,58,49,80,63,44,30.09,29.97,13,0,13,0.00
2013-8-24,88,77,68,72,67,62,84,73,58,30.02,29.88,21,2,21,0.00
2013-8-25,95,83,75,76,72,69,82,70,50,29.94,29.86,19,0,19,0.00
2013-8-26,95,84,77,76,74,72,85,72,49,29.91,29.75,14,0,14,0.00
2013-8-27,96,82,75,78,73,70,86,75,50,29.83,29.70,9,0,9,0.00
2013-8-28,90,78,69,72,69,63,98,76,43,29.93,29.83,11,1,11,0.00
2013-8-29,92,79,71,79,72,69,99,82,52,29.93,29.77,14,0,14,0.38
2013-8-30,84,76,69,72,67,62,93,75,54,29.84,29.73,13,0,13,0.00
2013-8-31,87,73,62,71,65,61,96,79,52,29.82,29.63,6,0,18,0.04
2013-9-1,73,68,61,66,60,54,94,78,64,29.91,29.66,14,0,14,0.01
2013-9-2,68,59,54,54,52,49,91,77,55,30.03,29.90,13,0,13,0.00
2013-9-3,78,62,50,60,54,48,98,79,45,30.05,29.95,6,0,6,0.00
2013-9-4,87,70,58,69,60,55,97,74,44,30.09,29.96,12,0,12,0.00
2013-9-5,81,69,58,64,58,51,84,69,50,30.16,30.05,11,1,11,0.00
2013-9-6,90,76,67,69,65,60,95,72,38,30.05,29.80,18,0,18,0.00
2013-9-7,94,79,68,71,66,62,91,66,36,29.92,29.77,17,1,20,0.00
2013-9-8,75,69,63,64,60,54,85,73,59,29.98,29.83,16,3,16,0.00
2013-9-9,89,76,68,74,68,63,96,78,56,29.83,29.55,17,1,17,0.00
2013-9-10,79,72,68,71,66,59,92,79,63,29.91,29.67,9,0,9,0.00
2013-9-11,85,71,62,64,58,49,93,65,35,29.97,29.91,16,0,16,0.00
2013-9-12,75,63,54,55,49,43,87,62,39,30.16,29.97,15,0,15,0.00
2013-9-13,72,58,47,49,45,42,93,65,36,30.22,30.05,6,0,6,0.00
2013-9-14,75,59,49,56,49,43,98,72,39,30.05,29.86,11,0,11,0.51
2013-9-15,64,57,49,58,54,43,100,89,73,30.27,29.84,12,0,12,0.28
2013-9-16,68,53,41,45,40,33,95,67,33,30.38,30.22,11,1,11,0.00
2013-9-17,68,56,46,57,49,42,97,80,60,30.22,29.91,21,1,21,0.01
2013-9-18,70,65,58,68,64,57,100,96,88,29.91,29.65,16,1,16,0.05
2013-9-19,75,69,64,70,67,62,98,93,79,29.71,29.59,9,0,12,0.13
2013-9-20,66,58,51,62,53,48,94,83,59,29.87,29.69,18,0,18,0.01
2013-9-21,64,52,46,51,47,44,96,81,56,29.94,29.86,9,0,9,0.01
2013-9-22,70,56,44,54,48,41,93,76,55,29.95,29.83,16,2,16,0.00
2013-9-23,72,60,52,54,50,47,86,71,48,29.92,29.83,15,2,21,0.00
2013-9-24,76,61,50,55,50,47,92,69,43,29.93,29.86,11,0,12,0.00
2013-9-25,74,60,51,55,51,48,93,73,49,29.93,29.83,14,0,14,0.00
2013-9-26,80,66,55,61,55,49,85,70,50,29.89,29.79,15,2,25,0.00
2013-9-27,80,71,63,63,60,56,78,68,50,29.87,29.75,23,2,23,0.00
2013-9-28,70,60,48,64,55,46,98,85,65,29.89,29.57,24,1,24,0.26
2013-9-29,75,59,46,53,46,42,94,67,34,29.93,29.76,16,1,16,0.00
2013-9-30,76,65,56,56,50,46,74,59,45,29.77,29.55,21,1,21,0.00
2013-10-1,76,64,53,54,46,37,77,54,26,29.93,29.54,15,0,15,0.00
2013-10-2,73,59,44,55,43,37,96,59,29,30.00,29.80,19,1,19,0.38
2013-10-3,59,57,55,58,56,54,99,98,94,29.86,29.76,17,1,17,0.24
2013-10-4,57,56,54,56,55,53,99,96,87,29.94,29.79,21,4,23,0.15
2013-10-5,59,54,44,59,54,43,100,98,95,29.86,29.66,28,2,28,0.72
2013-10-6,58,47,40,52,45,39,100,94,76,29.80,29.64,14,0,14,0.05
2013-10-7,65,51,42,54,45,41,100,81,49,29.95,29.78,9,0,9,0.00
2013-10-8,74,61,48,51,45,41,80,59,37,29.94,29.79,22,2,22,0.00
2013-10-9,75,63,54,55,49,46,82,63,43,29.99,29.89,16,1,16,0.00
2013-10-10,76,61,50,54,48,43,79,63,42,29.99,29.85,17,1,17,0.00
2013-10-11,73,65,57,58,53,50,87,67,52,29.85,29.59,28,4,28,0.02
2013-10-12,60,51,44,56,44,39,92,78,61,30.12,29.65,16,0,16,0.00
2013-10-13,60,47,37,44,37,33,96,71,37,30.40,30.12,11,0,11,0.00
2013-10-14,54,47,40,47,38,34,92,72,53,30.38,29.93,25,3,25,0.18
2013-10-15,53,49,46,53,48,45,100,98,90,29.93,29.63,18,2,18,0.64
2013-10-16,50,44,39,45,42,36,99,91,70,29.91,29.75,16,0,16,0.01
2013-10-17,58,46,38,46,41,36,97,83,55,29.85,29.72,12,0,12,0.14
2013-10-18,51,43,39,44,37,31,99,82,48,29.93,29.78,17,0,17,0.06
2013-10-19,45,39,35,41,36,33,97,91,77,29.80,29.65,5,0,5,0.20
2013-10-20,44,36,32,42,35,31,99,95,89,29.83,29.58,17,0,17,0.08
2013-10-21,37,34,29,35,26,23,93,74,62,29.93,29.83,17,0,17,0.00
2013-10-22,39,33,27,32,28,23,93,82,66,30.01,29.92,10,0,10,0.00
2013-10-23,39,34,32,32,27,20,93,76,61,30.07,29.96,18,0,18,0.00
2013-10-24,45,36,32,31,27,22,79,69,56,30.28,30.07,14,0,14,0.00
2013-10-25,55,42,28,41,34,26,92,72,53,30.28,29.73,22,0,22,0.00
2013-10-26,48,42,36,41,31,28,78,65,52,30.05,29.73,22,1,22,0.00
2013-10-27,56,41,30,36,30,26,86,67,41,30.09,29.78,12,0,12,0.00
2013-10-28,42,36,29,30,24,20,78,64,46,30.39,30.09,20,2,20,0.00
2013-10-29,41,36,29,36,28,20,89,73,67,30.39,30.06,12,2,15,0.02
2013-10-30,50,44,39,50,44,36,100,99,90,30.06,29.63,14,1,14,0.09
2013-10-31,50,43,39,50,43,39,100,100,100,29.63,29.34,7,0,7,0.04
2013-11-1,49,41,34,41,37,29,100,86,64,29.81,29.35,13,0,13,0.01
2013-11-2,47,39,32,35,31,28,89,74,53,30.07,29.81,13,0,13,0.00
2013-11-3,53,43,33,35,31,28,82,64,47,30.09,29.88,28,4,28,0.00
2013-11-4,47,43,33,45,37,32,98,81,57,30.11,29.80,26,3,26,0.15
2013-11-5,44,35,29,38,32,29,98,89,67,30.21,29.98,11,0,11,0.05
2013-11-6,37,33,30,33,30,26,97,88,73,30.14,29.97,14,0,14,0.17
2013-11-7,35,30,26,30,27,23,95,89,81,30.21,30.14,6,0,6,0.00
2013-11-8,44,34,24,38,28,22,95,78,56,30.18,29.58,24,3,24,0.00
2013-11-9,43,40,35,39,32,26,86,74,61,30.15,29.59,26,2,26,0.00
2013-11-10,45,37,29,31,28,24,85,70,52,30.30,30.07,18,0,18,0.00
2013-11-11,37,25,15,31,13,7,80,62,45,30.70,30.07,20,2,20,0.00
2013-11-12,27,19,12,13,9,6,79,65,43,30.78,30.46,10,0,10,0.00
2013-11-13,48,34,19,33,23,12,77,64,47,30.46,29.85,21,1,22,0.00
2013-11-14,45,37,32,35,31,27,94,78,67,29.85,29.72,12,0,12,0.00
2013-11-15,54,41,28,39,34,26,97,79,54,29.82,29.61,13,1,13,0.00
2013-11-16,50,44,41,50,41,34,100,92,73,29.61,29.18,11,1,15,0.00
2013-11-17,42,38,31,42,35,24,99,88,74,29.76,29.26,23,2,23,0.00
2013-11-18,33,29,22,25,20,18,81,70,57,30.25,29.76,21,2,21,0.00
2013-11-19,43,33,21,28,23,16,86,69,50,30.25,29.92,27,4,27,0.00
2013-11-20,43,39,35,34,28,23,94,66,48,30.00,29.88,23,3,23,0.00
2013-11-21,37,31,24,36,28,15,97,88,68,30.48,30.00,20,2,20,0.00
2013-11-22,30,22,13,16,11,4,83,63,37,30.60,30.44,21,1,21,0.00
2013-11-23,17,12,7,5,1,-2,77,64,48,30.83,30.60,28,1,28,0.00
2013-11-24,27,18,6,15,8,0,80,64,48,30.72,30.00,30,3,30,0.00
2013-11-25,38,32,26,28,22,15,77,67,59,30.04,29.89,19,1,19,0.00
2013-11-26,29,20,13,19,7,2,68,56,44,30.36,30.03,25,3,25,0.00
2013-11-27,22,14,8,9,5,2,80,67,51,30.37,30.15,11,0,11,0.00
2013-11-29,31,29,27,20,18,15,70,62,53,30.38,30.14,17,2,17,0.00
2013-11-30,39,31,25,26,23,20,84,72,59,30.14,30.00,10,0,12,0.00
2013-12-1,36,25,20,26,20,17,90,81,62,30.17,29.91,2,0,4,0.00
2013-12-2,35,31,24,33,28,20,97,90,81,29.91,29.57,19,2,19,0.00
2013-12-3,34,32,30,33,32,29,99,98,97,29.75,29.56,17,3,17,0.00
2013-12-4,32,28,15,32,27,12,98,96,86,29.74,29.44,15,2,16,0.00
2013-12-5,15,6,0,12,1,-6,86,78,74,30.35,29.65,7,0,10,0.00
2013-12-6,7,-1,-6,-1,-7,-13,77,74,66,30.67,30.35,5,0,5,0.00
2013-12-7,2,-5,-11,-7,-12,-17,74,70,60,30.77,30.62,5,0,5,0.00
2013-12-8,11,6,-3,6,0,-10,83,78,73,30.62,30.05,11,2,11,0.00
2013-12-9,10,0,-5,6,-6,-13,84,74,64,30.13,29.91,12,1,12,0.00
2013-12-10,10,5,0,4,-1,-7,84,75,65,30.29,29.79,16,0,16,0.00
2013-12-11,5,-3,-8,-3,-12,-16,70,65,55,30.60,30.29,7,0,13,0.00
2013-12-12,19,11,-1,11,4,-8,80,74,61,30.36,30.15,9,0,9,0.00
2013-12-13,16,13,10,10,7,4,82,75,68,30.28,30.12,16,1,18,0.00
2013-12-14,18,10,0,8,4,-6,80,76,66,30.28,30.07,14,0,14,0.00
2013-12-15,5,1,-1,-6,-9,-12,73,62,48,30.17,30.08,12,0,12,0.00
2013-12-16,20,8,-1,18,1,-20,91,74,36,30.17,29.92,11,0,11,0.00
2013-12-17,28,21,7,26,15,2,92,77,64,30.10,29.88,13,1,17,0.00
2013-12-18,34,21,6,25,14,2,86,76,66,30.06,29.65,18,1,18,0.00
2013-12-20,18,18,18,13,13,12,80,80,80,29.86,29.85,0,0,0,0.00
2013-12-21,24,20,16,17,14,11,82,78,69,29.98,29.83,7,0,7,0.00
2013-12-22,22,16,8,17,11,3,85,80,72,30.21,29.93,12,0,12,0.00
2013-12-23,8,1,-7,3,-6,-14,79,72,62,30.52,30.21,10,0,10,0.00
2013-12-24,10,-1,-13,3,-9,-20,81,70,49,30.51,30.16,18,1,18,0.00
2013-12-25,25,15,7,20,10,2,86,81,73,30.17,30.05,8,0,14,0.00
2013-12-26,24,19,11,19,14,6,88,82,75,30.16,30.07,9,0,9,0.00
2013-12-27,38,26,15,30,23,12,94,86,66,30.16,29.88,11,0,17,0.00
2013-12-28,42,30,21,31,26,19,96,86,62,29.96,29.61,22,1,22,0.00
2013-12-29,24,1,-14,19,-10,-23,83,62,43,30.32,29.94,28,2,28,0.00
2013-12-30,0,-7,-15,-6,-14,-23,76,70,64,30.34,30.25,5,0,5,0.00
2013-12-31,1,-6,-10,-8,-13,-18,76,68,57,30.45,30.23,5,0,5,0.00
2014-1-1,4,-2,-9,-7,-12,-18,66,63,58,30.53,30.44,10,0,10,0.00
2014-1-2,4,-4,-10,-10,-15,-19,67,58,40,30.53,30.41,6,0,6,0.00